Regional Weather Roundup
Issued by NWS State College, PA

Home | Current Version | Previous Version | Text Only | Print | Product List | Glossary On
Versions: 1 2 3 4 5 6 7 8 9 10 11 12 13 14 15 16 17 18 19 20 21 22 23 24 25 26 27 28 29 30 31 32 33 34 35 36 37 38 39 40 41 42 43 44 45 46 47 48 49 50
000
ASUS41 KCTP 131403
RWRCTP

REGIONAL WEATHER ROUNDUP
NATIONAL WEATHER SERVICE STATE COLLEGE PA
900 AM EST SAT FEB 13 2016

Note: "fair" indicates few or no clouds below 12,000 feet with no
significant weather and/or obstructions to visibility.

* = STATION THAT DOES NOT REPORT PRECIPITATION /E.G. RAIN...SNOW...ETC/
    THUNDER OR FOG.

PAZ002>004-007>009-013>016-020>023-029>032-131500-
WESTERN PENNSYLVANIA

CITY           SKY/WX    TMP DP  RH WIND       PRES   REMARKS
ERIE           PTSUNNY    6  -6  57 N17G25    30.33R WCI -13
MEADVILLE      SNOW       4  -2  76 N9        30.23R VSB 1/2 WCI -10
FRANKLIN*      CLOUDY     1  -9  60 N8        30.23R WCI -12
NEW CASTLE     FAIR       7   0  73 W10G18    30.30R WCI  -8
BEAVER COUNTY  NOT AVBL
BUTLER*        SUNNY      7  -2  66 W9G17     30.28R WCI  -7
PITTSBURGH INT MOSUNNY    6  -5  60 W17       30.28R WCI -13
PITTSBURGH     SUNNY      8  -5  55 W16G28    30.27R WCI -10
INDIANA*       CLOUDY     7  -2  66 NW9G24    30.23R WCI  -7
LATROBE        PTSUNNY    7  -4  61 W21       30.27R WCI -13
WASHINGTON CO* SUNNY      7  -8  51 W12G20    30.30R WCI  -9
$$

PAZ004>006-010>012-017>019-024>028-033>037-041-042-045-046-049>053-131500-
CENTRAL PENNSYLVANIA

CITY           SKY/WX    TMP DP  RH WIND       PRES   REMARKS
BRADFORD       MIX PCPN  -2 -12  62 NW20G30   30.07R WCI -24
DUBOIS         CLOUDY     2  -7  66 N13G28    30.12R HAZE    WCI -15
CLEARFIELD     PTSUNNY    6  -8  52 NW17G32   30.14R BLWGSNOWWCI -13
JOHNSTOWN      MIX PCPN   2  -7  66 W20G25    30.08R WCI -19
ALTOONA        MOSUNNY    6  -5  60 NW21G28   30.13R WCI -14
STATE COLLEGE  LGT SNOW   9  -2  61 NW17      30.13R WCI -10
WILLIAMSPORT   MOSUNNY   13  -8  39 NW22G36   30.14R WCI  -6
SELINSGROVE    LGT SNOW  14   7  73 W12       30.15R VSB 3/4 WCI   0
FT INDIANTOWN  FLURRIES  16   0  48 W23G31    30.11R WCI  -2
CAPITAL CITY   PTSUNNY   17  -4  39 NW22G30   30.16R WCI   0
HARRISBURG     PTSUNNY   17   2  51 NW29G38   30.15R HAZE    WCI  -2
YORK           MOSUNNY   16  -3  43 W16G25    30.15R WCI   1
$$

PAZ038>040-043-044-047-048-054-055-060>062-067>071-131500-
EASTERN PENNSYLVANIA

CITY           SKY/WX    TMP DP  RH WIND       PRES   REMARKS
SCRANTON       PTSUNNY   11  -1  58 NW15G24   30.03R WCI  -5
MOUNT POCONO   LGT SNOW   7  -1  70 NW18G29   29.89R VSB 3/4 WCI -12
ALLENTOWN      SUNNY     18  -4  37 W17G24    30.06R WCI   3
QUAKERTOWN*    SUNNY     18  -2  41 NW13G20   30.07R WCI   4
READING        MOSUNNY   17   0  47 NW22G30   30.10R WCI   0
LANCASTER      MIX PCPN  16   2  54 W23G33    30.12R WCI  -2
COATESVILLE    SUNNY     16   0  48 NW17G29   30.08R WCI   0
POTTSTOWN      SUNNY     18  -2  41 NW18G30   30.10R WCI   2
BLUE BELL        N/A     19   1  45 NW14G22   30.07R WCI   6
DOYLESTOWN     SUNNY     17  -5  37 NW17G33   30.05R WCI   1
WILLOW GROVE   NOT AVBL
NORTH PHILA    SUNNY     22   0  38 NW13G32   30.10R WCI  10
PHILADELPHIA   MOSUNNY   22  -1  36 NW22G33   30.11R WCI   6
$$



USA.gov is the U.S. government's official web portal to all federal, state and local government web resources and services.